Content
SEND FEEDBACK

Daily
Averages
Monthly
Summary
United States of America

LINCOLN, ILLINOIS


Home > North America > United States > Illinois
Elevation: 555 feet     Latitude: 40 09N     Longitude: 089 24W

WEATHER
 
SELECT A DAY
Number of Records: 330,553;   Date Range: 9/6/01 - 10/23/14
 
SHARE

PRINT THIS DATA

[ ← Previous Day ]
WEATHER ALMANAC - MARCH 25, 2013
[ Next Day → ]
[ °C ]   °F
Weather ElementAverageHighLow
Temperature33.5 °F38.5 °F (2:15 pm)28.9 °F (6:35 am)
Dewpoint28.2 °F30.7 °F (12:35 am)24.8 °F (8:55 am)
Humidity81.5 %96 % (1:15 am)65 % (1:35 pm)
Barometer29.92 in30.13 in (10:55 pm)29.73 in (12:35 am)
Wind Speed8.5 mph13.8 mph (12:55 pm)
Wind Gust20.7 mph (10:55 am)
Weather ElementAverage
Visibility7.7 mi
Wind DirectionNW (315.6 °)

Weather ElementTotal
Precipitation0.33 in
Heating Degree Days31.3 (Base 65)
Averaged from 71 records on March 25, 2013
WEATHER CONDITIONS BREAKOUT
WIND DIRECTION BREAKOUT
WEATHER BY HOUR - MARCH 25, 2013
[ °C ]   °F
Local TimeTemperatureDewpointHumidityBarometerVisibilityWind DirectionWind SpeedGust SpeedPrecipitationEventsConditions
12:35 AM32.0 °F30.7 °F95 %29.73 in1.5 miNNW (330°)10.4 mphSnowLight Snow
12:55 AM32.0 °F30.7 °F95 %29.74 in1.5 miNNW (330°)10.4 mphSnowLight Snow
1:15 AM31.8 °F30.7 °F96 %29.75 in1.0 miNNW (330°)9.2 mph16.1 mphSnowSnow
1:35 AM31.6 °F30.6 °F96 %29.75 in1.5 miNNW (340°)10.4 mph16.1 mphSnowLight Snow
1:55 AM31.6 °F30.2 °F94 %29.75 in2.0 miNNW (330°)6.9 mphSnowLight Snow
2:15 AM31.5 °F30.2 °F95 %29.75 in2.0 miNW (320°)9.2 mphSnowLight Snow
2:35 AM31.1 °F30.0 °F96 %29.76 in1.8 miNW (320°)9.2 mphSnowLight Snow
2:55 AM31.1 °F29.8 °F95 %29.76 in2.0 miNW (310°)9.2 mphSnowLight Snow
3:15 AM30.7 °F29.7 °F96 %29.76 in2.0 miNW (320°)9.2 mphSnowLight Snow
3:35 AM30.2 °F29.1 °F96 %29.76 in2.5 miNW (320°)10.4 mphSnowLight Snow
3:55 AM30.2 °F29.1 °F96 %29.76 in2.5 miNW (310°)6.9 mphSnowLight Snow
4:15 AM30.2 °F28.9 °F95 %29.76 in2.5 miNW (320°)10.4 mph16.1 mphSnowLight Snow
4:35 AM30.0 °F28.4 °F94 %29.76 in3.0 miNW (320°)10.4 mph18.4 mphSnowLight Snow
4:55 AM29.7 °F28.2 °F94 %29.77 in3.0 miNW (320°)9.2 mph16.1 mphSnowLight Snow
5:15 AM29.3 °F28.0 °F95 %29.78 in3.0 miNW (320°)12.7 mph18.4 mphSnowLight Snow
5:35 AM29.3 °F27.9 °F94 %29.78 in4.0 miNW (310°)8.1 mphSnowLight Snow
5:55 AM29.1 °F27.9 °F95 %29.79 in3.0 miNW (310°)9.2 mphSnowLight Snow
6:15 AM29.1 °F27.5 °F94 %29.79 in3.0 miNW (310°)8.1 mphSnowLight Snow
6:35 AM28.9 °F27.5 °F94 %29.80 in7.0 miNW (310°)8.1 mph17.3 mphOvercast
6:55 AM29.1 °F27.3 °F93 %29.81 in10.0 miNW (310°)9.2 mphOvercast
7:15 AM29.1 °F27.0 °F92 %29.81 in10.0 miNW (310°)8.1 mphOvercast
7:35 AM29.7 °F27.0 °F90 %29.82 in10.0 miNW (310°)8.1 mphOvercast
7:55 AM30.0 °F27.0 °F88 %29.83 in10.0 miWNW (300°)6.9 mphOvercast
8:15 AM30.7 °F26.2 °F83 %29.84 in10.0 miNW (310°)9.2 mphOvercast
8:35 AM31.1 °F26.1 °F82 %29.85 in10.0 miNW (320°)8.1 mphOvercast
8:55 AM31.8 °F24.8 °F75 %29.86 in10.0 miNW (320°)9.2 mph17.3 mphOvercast
9:15 AM32.0 °F24.8 °F75 %29.86 in10.0 miNW (320°)10.4 mphOvercast
9:35 AM32.0 °F25.0 °F75 %29.87 in10.0 miNW (320°)9.2 mph17.3 mphOvercast
9:55 AM32.0 °F25.5 °F77 %29.88 in7.0 miNW (320°)10.4 mphSnowLight Snow
10:15 AM32.0 °F26.4 °F80 %29.89 in2.5 miNW (320°)11.5 mph18.4 mph0.01 inSnowLight Snow
10:35 AM32.2 °F27.0 °F81 %29.89 in4.0 miNW (320°)11.5 mph17.3 mph0.01 inSnowLight Snow
10:55 AM32.9 °F27.0 °F79 %29.90 in5.0 miNW (320°)10.4 mph20.7 mph0.03 inSnowLight Snow
11:15 AM33.8 °F27.0 °F76 %29.91 in10.0 miNW (320°)9.2 mph18.4 mphMostly Cloudy
11:35 AM34.2 °F27.0 °F75 %29.91 in10.0 miNW (320°)10.4 mph17.3 mph0.02 inOvercast
11:55 AM34.7 °F26.6 °F72 %29.92 in10.0 miNNW (330°)11.5 mph19.6 mph0.02 inOvercast
12:15 PM34.9 °F27.3 °F74 %29.92 in10.0 miNNW (330°)11.5 mph17.3 mph0.01 inOvercast
12:35 PM35.6 °F27.5 °F72 %29.92 in10.0 miNW (320°)12.7 mph16.1 mph0.04 inOvercast
12:55 PM36.1 °F27.7 °F71 %29.93 in10.0 miNW (320°)13.8 mph19.6 mph0.07 inOvercast
1:15 PM37.0 °F28.0 °F70 %29.93 in10.0 miNW (310°)9.2 mph17.3 mph0.04 inOvercast
1:35 PM37.8 °F27.0 °F65 %29.93 in10.0 miNW (320°)11.5 mph18.4 mph0.04 inOvercast
1:55 PM37.6 °F27.5 °F67 %29.94 in10.0 miNW (320°)11.5 mph20.7 mph0.04 inOvercast
2:15 PM38.5 °F28.2 °F67 %29.94 in10.0 miNW (310°)8.1 mph18.4 mphMostly Cloudy
2:35 PM38.3 °F28.0 °F67 %29.94 in10.0 miNW (310°)9.2 mph16.1 mphScattered Clouds
2:55 PM37.4 °F27.9 °F68 %29.95 in10.0 miNW (320°)10.4 mph18.4 mphScattered Clouds
3:15 PM37.8 °F28.4 °F69 %29.96 in10.0 miWNW (300°)8.1 mph16.1 mphMostly Cloudy
3:35 PM37.6 °F28.2 °F69 %29.96 in10.0 miNW (310°)6.9 mph16.1 mphScattered Clouds
3:55 PM37.6 °F28.0 °F68 %29.97 in10.0 miNW (310°)9.2 mph18.4 mphScattered Clouds
4:15 PM37.6 °F27.9 °F68 %29.98 in10.0 miNW (310°)8.1 mphScattered Clouds
4:35 PM37.6 °F27.9 °F68 %29.99 in10.0 miNW (310°)6.9 mphClear
4:55 PM37.6 °F27.5 °F67 %30.00 in10.0 miNW (310°)11.5 mph17.3 mphScattered Clouds
5:15 PM36.9 °F27.7 °F69 %30.01 in10.0 miNW (310°)10.4 mph16.1 mphMostly Cloudy
5:35 PM36.5 °F27.9 °F71 %30.02 in10.0 miNW (310°)9.2 mph16.1 mphOvercast
5:55 PM36.1 °F28.0 °F72 %30.02 in10.0 miNW (310°)8.1 mphOvercast
6:15 PM36.0 °F27.9 °F72 %30.03 in10.0 miNW (310°)4.6 mphOvercast
6:35 PM35.8 °F28.2 °F74 %30.04 in10.0 miNW (310°)10.4 mph17.3 mphOvercast
6:55 PM34.5 °F29.5 °F82 %30.06 in10.0 miNW (310°)5.8 mphOvercast
7:15 PM35.1 °F28.2 °F76 %30.06 in10.0 miNW (310°)6.9 mphOvercast
7:35 PM34.9 °F28.8 °F78 %30.07 in10.0 miNW (310°)5.8 mphOvercast
7:55 PM34.9 °F28.9 °F79 %30.08 in10.0 miNW (320°)5.8 mphOvercast
8:15 PM34.9 °F28.9 °F79 %30.09 in10.0 miNW (310°)6.9 mphOvercast
8:35 PM34.7 °F29.1 °F80 %30.09 in10.0 miNW (310°)4.6 mphOvercast
8:55 PM34.5 °F29.3 °F81 %30.10 in10.0 miNW (310°)5.8 mphOvercast
9:15 PM34.5 °F29.3 °F81 %30.10 in10.0 miNW (310°)4.6 mphOvercast
9:35 PM34.3 °F29.3 °F82 %30.11 in10.0 miNW (310°)5.8 mphOvercast
9:55 PM34.2 °F29.3 °F82 %30.11 in10.0 miNW (310°)6.9 mphOvercast
10:15 PM34.2 °F29.1 °F82 %30.12 in10.0 miNW (320°)4.6 mphOvercast
10:35 PM34.0 °F29.1 °F82 %30.12 in10.0 miNW (320°)5.8 mphOvercast
10:55 PM34.0 °F29.1 °F82 %30.13 in10.0 miNW (320°)4.6 mphOvercast
11:15 PM33.8 °F29.3 °F84 %30.13 in10.0 miNW (310°)3.5 mphOvercast
11:35 PM33.8 °F29.3 °F84 %30.13 in10.0 miNW (320°)3.5 mphOvercast
11:55 PM33.8 °F29.3 °F84 %30.13 in10.0 miWNW (300°)3.5 mphOvercast
Hourly data recorded from KAAA, located miles away from Lincoln, Illinois







STORIES FROM OUR PARTNERS